timestamp,wind_dir_avg,wind_spd_avg,wind_spd_max_dir,wind_spd_gust,battery_voltage,lat,long
2023-11-23 00:04:01+00:00,345.0,5.38,351.0,6.35,12.41,47.59359,-54.27349
2023-11-23 00:14:00+00:00,347.0,4.79,340.0,5.65,12.41,47.59359,-54.27349
2023-11-23 00:24:00+00:00,331.0,4.43,335.0,5.28,12.41,47.59359,-54.27349
2023-11-23 00:34:00+00:00,6.0,4.91,17.0,5.75,12.41,47.59359,-54.27349
2023-11-23 00:44:00+00:00,26.0,2.77,24.0,3.27,12.41,47.59359,-54.27349
2023-11-23 00:54:00+00:00,332.0,5.58,333.0,6.84,12.41,47.59359,-54.27349
2023-11-23 01:04:00+00:00,332.0,4.75,332.0,6.01,12.41,47.59359,-54.27349
2023-11-23 01:14:00+00:00,359.0,3.91,23.0,5.4,12.33,47.59359,-54.27349
2023-11-23 01:24:00+00:00,6.0,4.98,359.0,5.57,12.33,47.59359,-54.27349
2023-11-23 01:34:00+00:00,343.0,6.18,344.0,6.89,12.33,47.59359,-54.27349
2023-11-23 01:44:00+00:00,6.0,3.91,358.0,4.67,12.33,47.59359,-54.27349
2023-11-23 01:54:00+00:00,340.0,5.16,339.0,6.14,12.33,47.59359,-54.27349
2023-11-23 02:04:00+00:00,357.0,4.52,357.0,5.58,12.33,47.59359,-54.27349
2023-11-23 02:14:01+00:00,343.0,4.17,335.0,5.37,12.33,47.59359,-54.27349
2023-11-23 02:24:01+00:00,1.0,4.2,358.0,4.75,12.33,47.59359,-54.27349
2023-11-23 02:34:01+00:00,16.0,4.16,19.0,4.88,12.33,47.59359,-54.27349
2023-11-23 02:44:01+00:00,338.0,4.62,335.0,5.25,12.33,47.59359,-54.27349
2023-11-23 02:54:01+00:00,336.0,3.8,333.0,5.22,12.33,47.59359,-54.27349
2023-11-23 03:04:01+00:00,348.0,2.4,324.0,3.41,12.33,47.59359,-54.27349
2023-11-23 03:14:01+00:00,342.0,4.37,334.0,5.12,12.25,47.59359,-54.27349
2023-11-23 03:24:01+00:00,325.0,3.98,329.0,4.76,12.25,47.59359,-54.27349
2023-11-23 03:34:01+00:00,325.0,3.78,326.0,4.88,12.25,47.59359,-54.27349
2023-11-23 03:44:01+00:00,3.0,2.85,358.0,3.5,12.25,47.59359,-54.27349
2023-11-23 03:54:01+00:00,346.0,3.43,325.0,4.32,12.25,47.59359,-54.27349
2023-11-23 04:04:01+00:00,352.0,1.42,342.0,2.03,12.25,47.59359,-54.27349
2023-11-23 04:14:01+00:00,313.0,3.61,318.0,4.2,12.25,47.59359,-54.27349
2023-11-23 04:24:01+00:00,307.0,3.57,314.0,4.44,12.25,47.59359,-54.27349
2023-11-23 04:34:01+00:00,334.0,3.58,327.0,4.45,12.25,47.59359,-54.27349
2023-11-23 04:44:01+00:00,321.0,3.78,328.0,4.98,12.25,47.59359,-54.27349
2023-11-23 04:54:01+00:00,323.0,4.17,319.0,5.24,12.25,47.59359,-54.27349
2023-11-23 05:04:01+00:00,328.0,4.55,330.0,5.48,12.25,47.59359,-54.27349
2023-11-23 05:14:00+00:00,325.0,3.06,325.0,4.29,12.25,47.59359,-54.27349
2023-11-23 05:24:00+00:00,340.0,3.74,346.0,4.22,12.25,47.59359,-54.27349
2023-11-23 05:34:00+00:00,322.0,3.96,328.0,4.8,12.25,47.59359,-54.27349
2023-11-23 05:44:00+00:00,324.0,4.12,323.0,5.06,12.25,47.59359,-54.27349
2023-11-23 05:54:00+00:00,327.0,4.2,324.0,4.98,12.25,47.59359,-54.27349
2023-11-23 06:04:00+00:00,327.0,4.75,319.0,5.52,12.25,47.59359,-54.27349
2023-11-23 06:14:01+00:00,326.0,4.77,321.0,5.8,12.17,47.59359,-54.27349
2023-11-23 06:24:01+00:00,321.0,4.19,323.0,5.08,12.17,47.59359,-54.27349
2023-11-23 06:34:01+00:00,338.0,3.56,343.0,4.67,12.17,47.59359,-54.27349
2023-11-23 06:44:01+00:00,337.0,3.53,331.0,4.22,12.17,47.59359,-54.27349
2023-11-23 06:54:01+00:00,343.0,4.29,350.0,4.88,12.17,47.59359,-54.27349
2023-11-23 07:04:01+00:00,344.0,4.2,323.0,5.14,12.17,47.59359,-54.27349
2023-11-23 07:14:01+00:00,335.0,3.84,326.0,4.64,12.17,47.59359,-54.27349
2023-11-23 07:24:01+00:00,336.0,3.55,323.0,4.32,12.17,47.59359,-54.27349
2023-11-23 07:34:01+00:00,345.0,3.52,350.0,4.25,12.17,47.59359,-54.27349
2023-11-23 07:44:01+00:00,338.0,2.96,316.0,4.06,12.17,47.59359,-54.27349
2023-11-23 07:54:01+00:00,340.0,3.19,340.0,3.86,12.17,47.59359,-54.27349
2023-11-23 08:04:01+00:00,340.0,2.58,328.0,3.37,12.17,47.59359,-54.27349
2023-11-23 08:14:00+00:00,336.0,3.0,322.0,3.72,12.17,47.59359,-54.27349
2023-11-23 08:24:00+00:00,325.0,3.5,328.0,4.05,12.17,47.59359,-54.27349
2023-11-23 08:34:00+00:00,323.0,3.57,320.0,4.26,12.17,47.59359,-54.27349
2023-11-23 08:44:00+00:00,326.0,2.77,319.0,4.64,12.17,47.59359,-54.27349
2023-11-23 08:54:00+00:00,321.0,4.25,320.0,5.32,12.17,47.59359,-54.27349
2023-11-23 09:04:00+00:00,321.0,3.71,314.0,4.62,12.17,47.59359,-54.27349
2023-11-23 09:14:01+00:00,323.0,4.03,325.0,4.71,12.09,47.59359,-54.27349
2023-11-23 09:24:01+00:00,337.0,4.07,318.0,5.31,12.09,47.59359,-54.27349
2023-11-23 09:34:01+00:00,343.0,4.2,318.0,5.81,12.09,47.59359,-54.27349
2023-11-23 09:44:01+00:00,350.0,4.23,326.0,5.19,12.09,47.59359,-54.27349
2023-11-23 09:54:01+00:00,337.0,3.63,322.0,4.6,12.09,47.59359,-54.27349
2023-11-23 10:04:01+00:00,352.0,3.19,356.0,3.98,12.09,47.59359,-54.27349
2023-11-23 10:14:01+00:00,354.0,3.53,1.0,4.17,12.09,47.59359,-54.27349
2023-11-23 10:24:01+00:00,353.0,3.17,349.0,3.94,12.09,47.59359,-54.27349
2023-11-23 10:34:01+00:00,351.0,3.16,356.0,3.6,12.09,47.59359,-54.27349
2023-11-23 10:44:01+00:00,5.0,3.04,4.0,3.71,12.09,47.59359,-54.27349
2023-11-23 10:54:01+00:00,355.0,2.97,358.0,3.85,12.09,47.59359,-54.27349
2023-11-23 11:04:01+00:00,353.0,2.47,355.0,2.94,12.09,47.59359,-54.27349
2023-11-23 11:14:00+00:00,2.0,2.43,357.0,3.06,12.09,47.59359,-54.27349
2023-11-23 11:24:00+00:00,4.0,2.02,3.0,2.35,12.09,47.59359,-54.27349
2023-11-23 11:34:00+00:00,355.0,1.84,353.0,2.34,12.09,47.59359,-54.27349
2023-11-23 11:44:00+00:00,357.0,1.9,356.0,2.48,12.09,47.59359,-54.27349
2023-11-23 11:54:00+00:00,12.0,1.76,11.0,2.3,12.09,47.59359,-54.27349
2023-11-23 12:04:00+00:00,11.0,1.3,2.0,1.83,12.09,47.59359,-54.27349
2023-11-23 12:14:00+00:00,38.0,1.2,30.0,1.65,14.48,47.59359,-54.27349
2023-11-23 12:24:00+00:00,127.0,1.38,128.0,1.93,14.48,47.59359,-54.27349
2023-11-23 12:34:00+00:00,63.0,1.61,72.0,1.96,14.48,47.59359,-54.27349
2023-11-23 12:44:00+00:00,346.0,1.41,346.0,1.85,14.48,47.59359,-54.27349
2023-11-23 12:54:00+00:00,127.0,1.49,133.0,2.03,14.48,47.59359,-54.27349
2023-11-23 13:04:00+00:00,133.0,2.12,154.0,2.99,14.48,47.59359,-54.27349
2023-11-23 13:14:00+00:00,178.0,2.19,181.0,3.16,13.68,47.59359,-54.27349
2023-11-23 13:24:00+00:00,176.0,2.48,182.0,3.37,13.68,47.59359,-54.27349
2023-11-23 13:34:00+00:00,168.0,2.46,177.0,2.97,13.68,47.59359,-54.27349
2023-11-23 13:44:00+00:00,176.0,2.41,174.0,2.86,13.68,47.59359,-54.27349
2023-11-23 13:54:00+00:00,178.0,2.33,180.0,2.94,13.68,47.59359,-54.27349
2023-11-23 14:04:00+00:00,217.0,3.02,214.0,3.74,13.68,47.59359,-54.27349
2023-11-23 14:14:00+00:00,195.0,3.24,195.0,4.01,14.24,47.59359,-54.27349
2023-11-23 14:24:00+00:00,206.0,3.29,206.0,4.23,14.24,47.59359,-54.27349
2023-11-23 14:34:00+00:00,207.0,3.89,214.0,4.75,14.24,47.59359,-54.27349
2023-11-23 14:44:00+00:00,203.0,3.04,202.0,3.96,14.24,47.59359,-54.27349
2023-11-23 14:54:00+00:00,170.0,3.68,170.0,4.22,14.24,47.59359,-54.27349
2023-11-23 15:04:00+00:00,163.0,1.81,160.0,3.1,14.24,47.59359,-54.27349
2023-11-23 15:14:00+00:00,181.0,3.09,163.0,4.3,13.6,47.59359,-54.27349
2023-11-23 15:24:00+00:00,140.0,3.11,131.0,3.95,13.6,47.59359,-54.27349
2023-11-23 15:34:00+00:00,125.0,3.47,129.0,3.92,13.6,47.59359,-54.27349
2023-11-23 15:44:00+00:00,136.0,1.93,111.0,2.69,13.6,47.59359,-54.27349
2023-11-23 15:54:00+00:00,139.0,1.64,137.0,2.21,13.6,47.59359,-54.27349
2023-11-23 16:04:00+00:00,141.0,1.57,140.0,2.19,13.6,47.59359,-54.27349
2023-11-23 16:14:00+00:00,128.0,4.11,132.0,4.65,13.68,47.59359,-54.27349
2023-11-23 16:24:00+00:00,167.0,5.43,168.0,6.38,13.68,47.59359,-54.27349
2023-11-23 16:34:00+00:00,147.0,3.03,149.0,4.0,13.68,47.59359,-54.27349
2023-11-23 16:44:00+00:00,160.0,4.26,153.0,4.9,13.68,47.59359,-54.27349
2023-11-23 16:54:00+00:00,146.0,4.14,145.0,4.78,13.68,47.59359,-54.27349
2023-11-23 17:04:00+00:00,131.0,2.99,123.0,3.76,13.68,47.59359,-54.27349
2023-11-23 17:14:01+00:00,146.0,6.52,153.0,7.38,13.6,47.59359,-54.27349
2023-11-23 17:24:01+00:00,163.0,4.77,162.0,5.57,13.6,47.59359,-54.27349
2023-11-23 17:34:01+00:00,162.0,3.89,147.0,5.49,13.6,47.59359,-54.27349
2023-11-23 17:44:01+00:00,177.0,5.68,175.0,6.4,13.6,47.59359,-54.27349
2023-11-23 17:54:01+00:00,164.0,4.65,169.0,5.55,13.6,47.59359,-54.27349
2023-11-23 18:04:01+00:00,162.0,4.72,162.0,5.89,13.6,47.59359,-54.27349
2023-11-23 18:14:01+00:00,176.0,4.8,183.0,5.78,13.6,47.59359,-54.27349
2023-11-23 18:24:01+00:00,167.0,4.4,146.0,5.43,13.6,47.59359,-54.27349
2023-11-23 18:34:01+00:00,164.0,4.67,165.0,5.37,13.6,47.59359,-54.27349
2023-11-23 18:44:01+00:00,157.0,5.82,156.0,6.62,13.6,47.59359,-54.27349
2023-11-23 18:54:01+00:00,164.0,5.5,161.0,6.19,13.6,47.59359,-54.27349
2023-11-23 19:04:01+00:00,157.0,5.13,160.0,6.3,13.6,47.59359,-54.27349
2023-11-23 19:14:00+00:00,153.0,6.59,151.0,8.16,13.21,47.59359,-54.27349
2023-11-23 19:24:00+00:00,164.0,6.8,163.0,8.35,13.21,47.59359,-54.27349
2023-11-23 19:34:00+00:00,140.0,6.59,146.0,7.66,13.21,47.59359,-54.27349
2023-11-23 19:44:00+00:00,141.0,5.69,142.0,7.07,13.21,47.59359,-54.27349
2023-11-23 19:54:00+00:00,144.0,5.24,143.0,6.3,13.21,47.59359,-54.27349
2023-11-23 20:04:00+00:00,142.0,6.1,143.0,6.71,13.21,47.59359,-54.27349
2023-11-23 20:14:00+00:00,134.0,5.27,122.0,7.4,12.65,47.59359,-54.27349
2023-11-23 20:24:00+00:00,127.0,4.82,124.0,5.52,12.65,47.59359,-54.27349
2023-11-23 20:34:00+00:00,118.0,4.65,124.0,6.78,12.65,47.59359,-54.27349
2023-11-23 20:44:00+00:00,131.0,5.47,132.0,6.01,12.65,47.59359,-54.27349
2023-11-23 20:54:00+00:00,132.0,4.75,124.0,5.67,12.65,47.59359,-54.27349
2023-11-23 21:04:00+00:00,135.0,5.54,143.0,6.57,12.65,47.59359,-54.27349
2023-11-23 21:14:00+00:00,155.0,6.25,156.0,7.52,12.49,47.59359,-54.27349
2023-11-23 21:24:00+00:00,145.0,6.71,126.0,9.68,12.49,47.59359,-54.27349
2023-11-23 21:34:00+00:00,147.0,6.22,145.0,7.6,12.49,47.59359,-54.27349
2023-11-23 21:44:00+00:00,145.0,6.79,136.0,8.43,12.49,47.59359,-54.27349
2023-11-23 21:54:00+00:00,139.0,6.96,131.0,8.41,12.49,47.59359,-54.27349
2023-11-23 22:04:00+00:00,149.0,6.96,151.0,8.14,12.49,47.59359,-54.27349
2023-11-23 22:14:00+00:00,149.0,8.51,143.0,9.86,12.41,47.59359,-54.27349
2023-11-23 22:24:00+00:00,152.0,9.23,142.0,10.96,12.41,47.59359,-54.27349
2023-11-23 22:34:00+00:00,148.0,8.44,133.0,10.72,12.41,47.59359,-54.27349
2023-11-23 22:44:00+00:00,140.0,9.27,128.0,12.48,12.41,47.59359,-54.27349
2023-11-23 22:54:00+00:00,144.0,8.02,131.0,9.69,12.41,47.59359,-54.27349
2023-11-23 23:04:00+00:00,129.0,10.68,124.0,12.44,12.41,47.59359,-54.27349
2023-11-23 23:14:00+00:00,139.0,8.0,127.0,10.82,12.41,47.59359,-54.27349
2023-11-23 23:24:00+00:00,134.0,8.4,124.0,11.69,12.41,47.59359,-54.27349
2023-11-23 23:34:00+00:00,137.0,7.06,122.0,9.19,12.41,47.59359,-54.27349
2023-11-23 23:44:00+00:00,137.0,7.01,131.0,9.29,12.41,47.59359,-54.27349
2023-11-23 23:54:00+00:00,149.0,8.0,147.0,9.12,12.41,47.59359,-54.27349
